CW4043 Weather Reports


Display with metric or nautical units.
time (UTC)temp
F
wind
direction
speed
MPH
gust
MPH
rain 1hr
in
rain 24hr
in
rain mn
in
humidity
%
barometer
mb
20260506133718 54 38 10.0 22.0 0.00 0.00 0.00 80 1009.8
20260506133218 54 53 9.0 19.0 0.00 0.00 0.00 80 1009.9
20260506132718 54 51 9.0 17.0 0.00 0.00 0.00 80 1009.9
20260506132217 55 32 9.0 23.0 0.00 0.00 0.00 80 1009.8
20260506131716 54 27 11.0 23.0 0.00 0.00 0.00 80 1009.7
20260506131214 54 28 12.0 22.0 0.00 0.00 0.00 80 1009.7
20260506130714 54 46 12.0 20.0 0.00 0.00 0.00 79 1009.8
20260506130215 55 35 11.0 20.0 0.00 0.00 0.00 78 1009.8
20260506125713 55 56 10.0 19.0 0.00 0.00 0.00 79 1009.6
20260506125431 55 26 9.0 19.0 0.00 0.00 0.00 78 1009.6
20260506124712 55 71 10.0 18.0 0.00 0.00 0.00 78 1009.7
20260506124210 55 28 10.0 18.0 0.00 0.00 0.00 77 1009.6
20260506123709 55 24 10.0 20.0 0.00 0.00 0.00 77 1009.6
20260506123203 55 17 11.0 21.0 0.00 0.00 0.00 76 1009.5
20260506122923 56 32 11.0 21.0 0.00 0.00 0.00 74 1009.5
20260506122202 57 57 9.0 16.0 0.00 0.00 0.00 71 1009.4
20260506121702 57 65 8.0 18.0 0.00 0.00 0.00 67 1009.4
20260506121426 58 26 7.0 18.0 0.00 0.00 0.00 68 1009.3
20260506120933 57 36 8.0 18.0 0.00 0.00 0.00 68 1009.2
20260506120418 56 35 7.0 18.0 0.00 0.00 0.00 68 1009.3
20260506115659 56 34 7.0 16.0 0.00 0.00 0.00 68 1009.2
20260506115154 56 59 8.0 19.0 0.00 0.00 0.00 67 1009.1
20260506114655 56 33 9.0 19.0 0.00 0.00 0.00 67 1009.1
20260506114155 56 31 8.0 18.0 0.00 0.00 0.00 66 1009.1
20260506113654 56 119 8.0 16.0 0.00 0.00 0.00 68 1009.1
20260506113154 56 85 9.0 15.0 0.00 0.00 0.00 68 1009.1
20260506112654 56 53 9.0 18.0 0.00 0.00 0.00 69 1009.1
20260506112154 56 31 9.0 18.0 0.00 0.00 0.00 69 1009.1
20260506112133 56 46 8.0 17.0 0.00 0.00 0.00 70 1009.2
20260506111419 56 70 7.0 14.0 0.00 0.00 0.00 69 1009.1
20260506110648 57 55 6.0 14.0 0.00 0.00 0.00 71 1009.0
20260506110147 56 51 6.0 14.0 0.00 0.00 0.00 71 1009.0
20260506110137 56 40 7.0 15.0 0.00 0.00 0.00 70 1009.0
20260506105141 56 17 7.0 15.0 0.00 0.00 0.00 70 1009.0
20260506104638 56 49 7.0 14.0 0.00 0.00 0.00 69 1009.1
20260506104136 56 0 5.0 13.0 0.00 0.00 0.00 68 1009.2
20260506103636 56 90 5.0 12.0 0.00 0.00 0.00 69 1009.2
20260506103136 56 63 6.0 12.0 0.00 0.00 0.00 70 1009.2
20260506102636 56 345 6.0 15.0 0.00 0.00 0.00 68 1009.2
20260506102136 55 19 6.0 15.0 0.00 0.00 0.00 69 1009.2
20260506101635 55 40 5.0 11.0 0.00 0.00 0.00 70 1009.1
20260506101133 55 0 5.0 11.0 0.00 0.00 0.00 71 1009.2
20260506100632 54 22 5.0 11.0 0.00 0.00 0.00 71 1009.1
20260506100130 54 67 4.0 10.0 0.00 0.00 0.00 73 1009.1
20260506095630 54 18 5.0 11.0 0.00 0.00 0.00 73 1009.1
20260506095130 53 12 5.0 11.0 0.00 0.00 0.00 72 1009.1
20260506094628 53 81 6.0 16.0 0.00 0.00 0.00 72 1009.2
20260506094616 53 40 5.0 16.0 0.00 0.00 0.00 73 1009.2
20260506093628 53 26 5.0 13.0 0.00 0.00 0.00 73 1009.2
20260506093128 53 45 4.0 13.0 0.00 0.00 0.00 74 1009.2
20260506092627 53 47 5.0 11.0 0.00 0.00 0.00 74 1009.3
20260506092609 52 17 5.0 11.0 0.00 0.00 0.00 74 1009.2
20260506091844 52 38 6.0 14.0 0.00 0.00 0.00 74 1009.2
20260506091346 52 45 6.0 14.0 0.00 0.00 0.00 74 1009.1
20260506090624 52 55 6.0 12.0 0.00 0.00 0.00 75 1009.2
20260506090122 52 13 6.0 12.0 0.00 0.00 0.00 76 1009.1
20260506085617 52 20 6.0 13.0 0.00 0.00 0.00 77 1009.1
20260506085114 52 51 5.0 13.0 0.00 0.00 0.00 77 1009.1
20260506084614 52 31 6.0 14.0 0.00 0.00 0.00 78 1009.2
20260506084113 52 38 6.0 14.0 0.00 0.00 0.00 78 1009.1
20260506083610 52 78 5.0 12.0 0.00 0.00 0.00 79 1009.0
20260506083110 52 28 4.0 10.0 0.00 0.00 0.00 79 1009.0
20260506082609 52 13 5.0 11.0 0.00 0.00 0.00 80 1009.0
20260506082102 52 44 6.0 15.0 0.00 0.00 0.00 80 1009.0
20260506081602 52 52 6.0 15.0 0.00 0.00 0.00 79 1009.0
20260506081102 52 86 6.0 14.0 0.00 0.00 0.00 79 1008.9
20260506080820 52 39 6.0 14.0 0.00 0.00 0.00 79 1008.9
20260506073525 51 36 7.0 12.0 0.00 0.00 0.00 81 1008.5
20260506073514 51 5 7.0 15.0 0.00 0.00 0.00 81 1008.6
20260506072524 51 50 6.0 15.0 0.00 0.00 0.00 82 1008.7
20260506072234 51 46 5.0 13.0 0.00 0.00 0.00 83 1008.6
20260506071518 51 89 5.0 11.0 0.00 0.00 0.00 84 1008.6
20260506071242 51 98 5.0 11.0 0.00 0.00 0.00 85 1008.6
20260506070515 51 41 5.0 15.0 0.00 0.00 0.00 86 1008.6
20260506062456 50 81 6.0 14.0 0.00 0.00 0.00 88 1008.3
20260506061956 50 34 7.0 18.0 0.00 0.00 0.00 88 1008.3
20260506061456 50 36 7.0 18.0 0.00 0.00 0.00 88 1008.2
20260506060955 50 85 7.0 16.0 0.00 0.00 0.00 89 1008.4
20260506060709 50 48 6.0 13.0 0.00 0.00 0.00 89 1008.3
20260506060209 50 56 5.0 10.0 0.00 0.00 0.00 89 1008.4
20260506050930 49 41 5.0 13.0 0.00 0.00 0.00 89 1008.2
20260506050427 49 64 6.0 13.0 0.00 0.00 0.00 89 1008.2
20260506050149 49 74 6.0 14.0 0.00 0.00 0.00 89 1008.2
20260506044426 49 46 6.0 16.0 0.00 0.00 0.00 89 1008.2
20260506043925 49 37 5.0 14.0 0.00 0.00 0.00 89 1008.3
20260506043426 49 99 5.0 14.0 0.00 0.00 0.00 89 1008.3
20260506043148 49 104 4.0 10.0 0.00 0.00 0.00 89 1008.3
20260506042424 48 28 4.0 10.0 0.00 0.00 0.00 89 1008.3
20260506041922 48 45 4.0 11.0 0.00 0.00 0.00 88 1008.3
20260506041642 48 45 4.0 11.0 0.00 0.00 0.00 88 1008.3
20260506040920 48 61 4.0 10.0 0.00 0.00 0.00 88 1008.4
20260506040644 48 44 4.0 10.0 0.00 0.00 0.00 88 1008.4
20260506040139 48 23 4.0 9.0 0.00 0.00 0.00 88 1008.3
20260506035419 48 45 4.0 9.0 0.00 0.00 0.00 88 1008.4
20260506034920 48 56 4.0 9.0 0.00 0.00 0.00 88 1008.4
20260506034420 48 54 4.0 9.0 0.00 0.00 0.00 88 1008.4
20260506034138 48 44 4.0 9.0 0.00 0.00 0.00 88 1008.4
20260506033419 48 46 4.0 8.0 0.00 0.00 0.00 88 1008.4
20260506032920 48 38 4.0 10.0 0.00 0.00 0.00 88 1008.5
20260506032650 48 40 4.0 10.0 0.00 0.00 0.00 88 1008.5
20260506031920 48 42 4.0 9.0 0.00 0.00 0.00 89 1008.6
20260506031420 48 60 3.0 9.0 0.00 0.00 0.00 89 1008.5
20260506030919 48 56 4.0 10.0 0.00 0.00 0.00 89 1008.6
20260506030420 48 44 4.0 10.0 0.00 0.00 0.00 89 1008.7
20260506025919 48 40 4.0 7.0 0.00 0.00 0.00 89 1008.6
20260506025641 48 34 4.0 8.0 0.00 0.00 0.00 89 1008.7
20260506024920 48 52 4.0 9.0 0.00 0.00 0.00 89 1008.7
20260506024419 48 64 3.0 9.0 0.00 0.00 0.00 89 1008.7
20260506023919 48 61 3.0 8.0 0.00 0.00 0.00 89 1008.8
20260506023420 48 105 4.0 10.0 0.00 0.00 0.00 89 1008.8
20260506022919 48 53 3.0 10.0 0.00 0.00 0.00 89 1008.9
20260506022419 48 76 3.0 10.0 0.00 0.00 0.00 89 1008.9
20260506021919 48 40 3.0 10.0 0.00 0.00 0.00 89 1008.8
20260506021418 48 52 3.0 6.0 0.00 0.00 0.00 89 1008.9
20260506020917 49 42 3.0 8.0 0.00 0.00 0.00 89 1008.9
20260506020414 49 59 4.0 8.0 0.00 0.00 0.00 89 1008.9
20260506015913 49 28 3.0 6.0 0.00 0.00 0.00 89 1008.9
20260506015412 49 25 3.0 6.0 0.00 0.00 0.00 88 1008.9
20260506014912 49 71 3.0 6.0 0.00 0.00 0.00 88 1008.9
20260506014411 49 38 2.0 5.0 0.00 0.00 0.00 88 1008.9
20260506013910 49 45 2.0 6.0 0.00 0.00 0.00 88 1009.0
20260506013407 49 22 3.0 6.0 0.00 0.00 0.00 88 1008.9
20260506012907 49 30 3.0 7.0 0.00 0.00 0.00 88 1009.0
20260506012408 49 55 4.0 10.0 0.00 0.00 0.00 88 1009.0
20260506012129 49 37 5.0 10.0 0.00 0.00 0.00 88 1009.1
20260506011359 49 111 5.0 12.0 0.00 0.00 0.00 88 1009.1
20260506010859 49 20 5.0 12.0 0.00 0.00 0.00 87 1009.0
20260506010359 49 66 5.0 11.0 0.00 0.00 0.00 87 1009.1
20260506005900 50 355 6.0 11.0 0.00 0.00 0.00 87 1009.0
20260506005359 50 52 6.0 14.0 0.00 0.00 0.00 87 1009.0
20260506004900 50 49 6.0 14.0 0.00 0.00 0.00 86 1009.0
20260506004359 50 59 6.0 12.0 0.00 0.00 0.00 86 1009.1
20260506003900 50 39 5.0 12.0 0.00 0.00 0.00 86 1009.2
20260506003400 50 52 5.0 10.0 0.00 0.00 0.00 86 1009.3
20260506002900 50 36 5.0 10.0 0.00 0.00 0.00 86 1009.4
20260506002400 50 71 5.0 10.0 0.00 0.00 0.00 86 1009.5
20260506001900 50 70 4.0 11.0 0.00 0.00 0.00 86 1009.5
20260506001359 50 67 4.0 13.0 0.00 0.00 0.00 85 1009.5
20260506000858 50 28 5.0 13.0 0.00 0.00 0.00 85 1009.5
20260506000358 50 33 5.0 10.0 0.00 0.00 0.00 85 1009.5
20260505235857 50 17 4.0 10.0 0.00 0.00 0.00 84 1009.5
20260505235357 50 46 5.0 12.0 0.00 0.00 0.00 84 1009.5
20260505234857 50 24 7.0 14.0 0.00 0.00 0.00 84 1009.4
20260505234357 50 32 7.0 14.0 0.00 0.00 0.00 84 1009.4
20260505233857 50 69 7.0 13.0 0.00 0.00 0.00 84 1009.5
20260505233357 50 32 7.0 13.0 0.00 0.00 0.00 84 1009.5
20260505232857 50 38 7.0 12.0 0.00 0.00 0.00 84 1009.6
20260505232357 50 32 7.0 15.0 0.00 0.00 0.00 84 1009.7
20260505231857 50 27 8.0 15.0 0.00 0.00 0.00 84 1009.6
20260505231357 49 16 8.0 14.0 0.00 0.00 0.00 84 1009.6
20260505230857 49 42 9.0 16.0 0.00 0.00 0.00 85 1009.8
20260505230358 49 49 9.0 17.0 0.00 0.00 0.00 85 1009.7
20260505225857 49 48 9.0 17.0 0.00 0.00 0.00 85 1009.7
20260505225355 49 53 9.0 18.0 0.00 0.00 0.00 85 1009.7
20260505224848 49 57 9.0 18.0 0.00 0.00 0.00 85 1009.8
20260505224350 49 27 9.0 16.0 0.00 0.00 0.00 85 1009.9
20260505223849 49 47 8.0 16.0 0.00 0.00 0.00 85 1009.9
20260505223350 49 51 7.0 14.0 0.00 0.00 0.00 85 1010.0
20260505222849 49 60 6.0 12.0 0.00 0.00 0.00 85 1010.2
20260505222349 49 41 6.0 11.0 0.00 0.00 0.00 85 1010.1
20260505221850 49 19 7.0 13.0 0.00 0.00 0.00 85 1010.2
20260505221349 49 49 7.0 14.0 0.00 0.00 0.00 85 1010.3
20260505220849 49 40 7.0 15.0 0.00 0.00 0.00 85 1010.4
20260505220608 49 35 8.0 16.0 0.00 0.00 0.00 85 1010.4
20260505215848 49 26 8.0 16.0 0.00 0.00 0.00 85 1010.4
20260505215349 49 40 8.0 14.0 0.00 0.00 0.00 85 1010.5
20260505214849 49 34 7.0 14.0 0.00 0.00 0.00 85 1010.5
20260505214608 49 39 7.0 12.0 0.00 0.00 0.00 85 1010.6
20260505213849 49 32 7.0 12.0 0.00 0.00 0.00 85 1010.6
20260505213349 49 53 6.0 13.0 0.00 0.00 0.00 85 1010.7
20260505212848 49 42 5.0 13.0 0.00 0.00 0.00 85 1010.6
20260505212345 49 39 5.0 11.0 0.00 0.00 0.00 85 1010.6
20260505211841 49 49 4.0 11.0 0.00 0.00 0.00 85 1010.6
20260505211340 49 54 5.0 15.0 0.00 0.00 0.00 84 1010.6
20260505210832 49 61 6.0 15.0 0.00 0.00 0.00 84 1010.6
20260505210333 49 0 5.0 13.0 0.00 0.00 0.00 84 1010.6
20260505205833 49 51 5.0 13.0 0.00 0.00 0.00 84 1010.7
20260505205642 49 51 5.0 14.0 0.00 0.00 0.00 84 1010.7
20260505205546 49 49 5.0 14.0 0.00 0.00 0.00 83 1010.7
20260505204330 49 50 6.0 11.0 0.00 0.00 0.00 83 1010.7
20260505203829 49 32 5.0 10.0 0.00 0.00 0.00 83 1010.7
20260505203551 49 355 4.0 11.0 0.00 0.00 0.00 83 1010.7
20260505202825 49 83 4.0 11.0 0.00 0.00 0.00 83 1010.7
20260505202325 49 42 5.0 14.0 0.00 0.00 0.00 83 1010.7
20260505201825 49 74 6.0 14.0 0.00 0.00 0.00 83 1010.8
20260505201322 49 53 7.0 13.0 0.00 0.00 0.00 83 1010.7
20260505201040 49 43 7.0 13.0 0.00 0.00 0.00 84 1010.7
20260505200322 49 40 5.0 11.0 0.00 0.00 0.00 84 1010.7
20260505195823 49 43 5.0 10.0 0.00 0.00 0.00 84 1010.7
20260505195321 49 53 5.0 12.0 0.00 0.00 0.00 84 1010.7
20260505194821 49 27 6.0 14.0 0.00 0.00 0.00 84 1010.7
20260505194319 49 348 7.0 14.0 0.00 0.00 0.00 84 1010.7
20260505193816 49 44 5.0 13.0 0.00 0.00 0.00 84 1010.7
20260505193308 49 28 6.0 13.0 0.00 0.00 0.00 85 1010.5
20260505192810 49 65 7.0 13.0 0.00 0.00 0.00 85 1010.6
20260505192305 49 32 7.0 13.0 0.00 0.00 0.00 85 1010.6
20260505191804 50 40 6.0 13.0 0.00 0.00 0.00 85 1010.7
20260505191522 50 38 7.0 13.0 0.00 0.00 0.00 85 1010.6
20260505190802 50 26 7.0 15.0 0.00 0.00 0.00 85 1010.6
20260505190255 50 34 6.0 15.0 0.00 0.00 0.00 85 1010.5
20260505185750 50 32 8.0 14.0 0.00 0.00 0.00 85 1010.5
20260505185250 50 38 8.0 14.0 0.00 0.00 0.00 85 1010.5
20260505184750 50 49 8.0 16.0 0.00 0.00 0.00 84 1010.4
20260505184249 50 38 8.0 16.0 0.00 0.00 0.00 84 1010.5
20260505183750 50 40 6.0 16.0 0.00 0.00 0.00 85 1010.5
20260505183248 50 57 6.0 14.0 0.00 0.00 0.00 85 1010.4
20260505182747 50 35 7.0 14.0 0.00 0.00 0.00 84 1010.4
20260505182246 50 69 7.0 13.0 0.00 0.00 0.00 84 1010.4
20260505181747 50 43 7.0 13.0 0.00 0.00 0.00 84 1010.3
20260505181246 50 32 7.0 14.0 0.00 0.00 0.00 84 1010.5
20260505180741 50 21 8.0 16.0 0.00 0.00 0.00 84 1010.5
20260505180241 50 32 8.0 18.0 0.00 0.00 0.00 83 1010.4
20260505175741 50 61 7.0 18.0 0.00 0.00 0.00 83 1010.5
20260505175241 51 33 6.0 13.0 0.00 0.00 0.00 83 1010.5
20260505174950 51 37 7.0 16.0 0.00 0.00 0.00 83 1010.4
20260505174233 51 25 8.0 16.0 0.00 0.00 0.00 83 1010.3
20260505173733 51 57 7.0 15.0 0.00 0.00 0.00 83 1010.4
20260505173233 51 70 7.0 15.0 0.00 0.00 0.00 83 1010.4
20260505172733 51 95 7.0 16.0 0.00 0.00 0.00 83 1010.5
20260505172452 51 30 7.0 16.0 0.00 0.00 0.00 83 1010.4
20260505171730 51 45 6.0 15.0 0.00 0.00 0.00 83 1010.4
20260505171229 51 34 7.0 15.0 0.00 0.00 0.00 83 1010.5
20260505170729 51 36 8.0 17.0 0.00 0.00 0.00 83 1010.5
20260505170229 51 36 9.0 17.0 0.00 0.00 0.00 83 1010.5
20260505165956 51 41 9.0 17.0 0.00 0.00 0.00 83 1010.5
20260505165222 51 46 8.0 17.0 0.00 0.00 0.00 83 1010.6
20260505164721 51 51 8.0 15.0 0.00 0.00 0.00 83 1010.7
20260505164221 51 35 8.0 14.0 0.00 0.00 0.00 83 1010.7
20260505163723 51 38 8.0 16.0 0.00 0.00 0.00 83 1010.7
20260505163219 51 50 9.0 16.0 0.00 0.00 0.00 82 1010.8
20260505162941 51 34 9.0 16.0 0.00 0.00 0.00 82 1010.7
20260505162217 51 26 9.0 15.0 0.00 0.00 0.00 82 1010.7
20260505161717 51 38 9.0 17.0 0.00 0.00 0.00 82 1010.8
20260505161217 51 57 8.0 17.0 0.00 0.00 0.00 82 1010.7
20260505160717 51 53 8.0 14.0 0.00 0.00 0.00 83 1010.7
20260505160215 51 30 9.0 16.0 0.00 0.00 0.00 83 1010.7
20260505152712 52 24 10.0 17.0 0.00 0.00 0.00 81 1010.9
20260505152212 52 49 8.0 17.0 0.00 0.00 0.00 81 1010.9
20260505151712 52 55 7.0 14.0 0.00 0.00 0.00 81 1010.9
20260505151224 52 9 7.0 13.0 0.00 0.00 0.00 81 1010.9
20260505150932 52 55 7.0 16.0 0.00 0.00 0.00 80 1011.0
20260505150211 52 34 8.0 16.0 0.00 0.00 0.00 80 1010.9
20260505140648 53 30 7.0 16.0 0.00 0.00 0.00 80 1011.2